Regional Weather Roundup
Issued by NWS

Home | Current Version | Previous Version | Text Only | Print | Product List | Glossary On
Versions: 1 2 3 4 5 6 7 8 9 10 11 12 13 14 15 16 17 18 19 20 21 22 23 24 25 26 27 28 29 30 31 32 33 34 35 36 37 38 39 40 41 42 43 44 45 46 47 48 49 50
000
ASCA44 KEWX 190820
RWRMX

LATIN AMERICA AND CARIBBEAN REGIONAL WEATHER ROUNDUP
NATIONAL WEATHER SERVICE AUSTIN/SAN ANTONIO TX
200 AM CST FRI DEC 19 2014

NOTE: "FAIR" INDICATED FEW OR NO CLOUDS BELOW 12,000 FEET WITH NO
SIGNIFICANT WEATHER AND/OR OBSTRUCTIONS TO VISIBILITY.

BAJA CALIFORNIA

CITY           SKY/WX    TMP DP  RH WIND       PRES   REMARKS
TIJUANA        CLEAR     54  46  76 E5        30.23S

NORTHWESTERN MEXICO

CITY           SKY/WX    TMP DP  RH WIND       PRES   REMARKS

NORTHEASTERN MEXICO

CITY           SKY/WX    TMP DP  RH WIND       PRES   REMARKS
MONTERREY      DRZL/FOG  59  57  94 CALM      29.98F VSB 1/2
REYNOSA        CLOUDY    61  59  94 NW3       29.98S FOG
SALTILLO       CLOUDY    54  52  94 CALM      30.12S FOG
CD. VICTORIA   DRIZZLE   64  64 100 E7        29.97F FOG

WESTERN MEXICO

CITY           SKY/WX    TMP DP  RH WIND       PRES   REMARKS
DEL BAJIO      PTCLDY    50  41  71 N6        30.28S WCI  48
GUADALAJARA    CLEAR     52  45  76 CALM      30.18F
MAZATLAN       CLEAR     55  52  88 N8        29.96R
P. VALLARTA    CLEAR     70  68  94 CALM      29.96F
ZACATECAS      CLEAR     50  32  50 S12       30.23S WCI  46

CENTRAL MEXICO

CITY           SKY/WX    TMP DP  RH WIND       PRES   REMARKS
MEXICO CITY    PTCLDY    57  45  62 S2        30.31F
MORELIA        CLEAR     46  43  87 CALM      30.22F
QUERETARO      CLEAR     46  39  76 E5        30.26F WCI  44
TOLUCA         PTCLDY    41  39  93 CALM      30.40F

SOUTHERN MEXICO

CITY           SKY/WX    TMP DP  RH WIND       PRES   REMARKS
ACAPULCO       CLEAR     73  72  94 CALM      29.90S

YUCATAN PENINSULA

CITY           SKY/WX    TMP DP  RH WIND       PRES   REMARKS
CANCUN         PTCLDY    75  68  78 NE6       30.00F
COZUMEL        MOCLDY    70  68  94 NE5       29.99F
MERIDA         CLEAR     68  64  88 E6        30.01F
TAPACHULA      CLEAR     77  73  88 CALM      29.90F

CENTRAL AMERICA

CITY           SKY/WX    TMP DP  RH WIND       PRES   REMARKS

CARIBBEAN

CITY           SKY/WX    TMP DP  RH WIND       PRES   REMARKS
KINGSTON       PTCLDY    77  70  78 N5        29.92S
NASSAU           N/A     63  57  82 CALM      30.09S
SAN JUAN       PTCLDY    73  70  88 CALM      29.93F
SANTO DOMINGO  PTCLDY    70  68  94 CALM      29.94S
ST. CROIX      MOCLDY    75  68  78 NE9       29.92
ST. MAARTEN    PTCLDY    77  66  69 E10       29.92S
ST. THOMAS     MOCLDY    77  66  69 E7        29.92F

$$



USA.gov is the U.S. government's official web portal to all federal, state and local government web resources and services.